Location: Bakersfield
(35.3730°N, 119.0180°W)
Time: 02:29:44
(UTC-08:00)

Daily predictions for brighter satellites

Satellite Brightness Start Highest point End
(mag) Time Altitude Azimuth Time Altitude Azimuth Time Altitude Azimuth
Atlas Centaur 2 4.0 03:08:15 40° ESE 03:08:15 40° ESE 03:13:51 10° E
Cosmos 2237 Rocket 4.4 03:20:39 18° NE 03:20:39 18° NE 03:22:13 10° NE
SL-16 R/B 3.8 03:45:37 10° SSE 03:50:32 32° ESE 03:55:29 10° NE
Meteor 2-10 Rocket 4.2 04:00:49 38° NNE 04:02:53 58° E 04:08:35 10° SSE
Cosmos 2016 Rocket 4.4 04:06:13 10° N 04:12:16 59° E 04:18:15 10° SSE
ISS -0.9 04:14:48 17° E 04:14:48 17° E 04:15:55 10° E
CZ-4B R/B 3.2 04:09:44 10° NNE 04:15:26 84° ESE 04:21:05 10° SSW
DELTA 2 R/B (1) 3.9 04:15:58 57° NNE 04:15:58 57° NNE 04:21:00 10° ENE
IUS-1 SRM-2 4.3 04:16:46 25° SSE 04:17:03 25° SSE 04:23:31 10° ESE
Cosmos 967 Rocket 4.3 04:21:05 67° WSW 04:21:51 77° WNW 04:28:16 10° NNE
PAYLOAD B 4.5 04:19:18 10° N 04:23:38 53° NNW 04:23:38 53° NNW
Cosmos 1000 Rocket 4.4 04:20:08 10° SSW 04:26:19 64° W 04:32:29 10° N
Cosmos 2278 Rocket 2.0 04:26:12 70° NW 04:26:51 81° WSW 04:32:30 10° SSE
CZ-3 Stage 3 4.1 04:27:45 40° WSW 04:30:26 57° S 05:16:06 10° ESE
CZ-3 Stage 3 4.1 04:27:44 40° WSW 04:30:26 57° S 05:16:05 10° ESE
CZ-3 Stage 3 4.1 04:27:45 40° WSW 04:30:26 57° S 05:16:05 10° ESE
CZ-3 Stage 3 4.1 04:27:45 40° WSW 04:30:27 57° S 05:16:05 10° ESE
CZ-3 Stage 3 4.1 04:27:45 40° WSW 04:30:27 57° S 05:16:06 10° ESE
Cosmos 1340 3.7 04:35:16 38° SSE 04:35:16 38° SSE 04:37:43 10° S
Cosmos 2173 Rocket 3.9 04:31:46 35° NNW 04:34:26 63° W 04:40:41 10° S
Cosmos 1933 3.5 04:34:40 66° NE 04:34:57 69° E 04:38:56 10° SSE
Meteor 1-28 Rocket 3.9 04:33:45 10° SSE 04:37:25 53° ENE 04:38:41 35° NNE
Hubble Space Telescope 2.7 04:39:35 19° S 04:40:34 21° SSE 04:43:43 10° ESE
In-Cosmos 22 Rocket 4.1 04:35:49 10° SSW 04:41:25 70° W 04:47:13 10° N
USA 215 4.2 04:38:02 10° NE 04:44:17 46° SE 04:50:29 10° SSW
Landsat 4 4.0 04:42:15 10° SSE 04:45:55 63° ENE 04:47:31 31° N
Lacrosse 5 rocket 2.1 04:45:17 17° SSW 04:48:42 58° SE 04:53:17 10° NE
Cosmos 1459 Rocket 4.1 04:47:29 38° NW 04:49:01 45° W 04:54:44 10° SSW
Cosmos 2100 Rocket 4.4 04:52:49 35° WNW 04:54:12 39° W 05:00:00 10° SSW
Delta 2 Rocket 3.2 04:53:32 61° W 04:54:13 85° N 04:58:50 10° E
Atlas Centaur 2 3.3 04:50:53 29° WSW 04:55:17 62° S 05:03:43 10° ESE
Cosmos 2237 Rocket 3.5 05:02:33 22° NW 05:02:33 22° NW 05:05:39 10° N
IRS-1C Rocket 4.4 04:57:19 10° N 05:02:12 40° WNW 05:07:04 10° SW
SKYMED 2 4.2 04:58:01 10° SSE 05:02:15 57° ENE 05:06:31 10° N
Cosmos 2333 Rocket 4.2 05:05:02 12° NNW 05:05:02 12° NNW 05:05:44 10° NNW
Cosmos 2233 Rocket 4.3 04:56:40 10° N 05:02:46 66° E 05:08:49 10° SSE
Cosmos 1470 Rocket 3.6 04:59:50 10° SSW 05:04:13 55° W 05:08:36 10° N
CZ-2C R/B 3.6 04:59:49 10° S 05:04:18 62° WSW 05:07:45 16° NNW
Cosmos 1802 Rocket 4.3 04:58:53 11° NNW 05:04:22 41° W 05:10:08 10° SSW
Meteor 2-3 Rocket 3.7 04:58:36 10° S 05:04:24 86° W 05:10:10 10° N
PSLV R/B 3.6 05:04:01 41° SSW 05:04:48 56° SSE 05:07:55 10° ENE
Cosmos 1992 Rocket 4.1 04:59:44 10° SSW 05:04:57 80° ESE 05:10:11 10° NNE
NOAA 6 4.0 05:01:10 10° NNE 05:06:18 90° SW 05:11:25 10° SSW
Okean-O 2.6 05:02:30 10° NNE 05:06:57 90° SE 05:11:23 10° SSW
ASTRO E2 4.0 05:09:10 23° SW 05:10:22 27° SSW 05:13:47 10° SE
Cosmos 1825 3.3 05:11:39 10° SSE 05:15:16 46° E 05:18:54 10° NNE
IDEFIX/ARIANE 42P 2.8 05:10:33 10° NNE 05:15:44 72° ESE 05:20:54 10° S
Cosmos 1782 4.4 05:15:28 10° NNE 05:19:09 36° E 05:22:49 10° SSE
Feng Yun 1-1 Rocket 4.3 05:14:18 10° N 05:20:11 67° WNW 05:26:02 10° SSW
Cosmos 1503 Rocket 3.9 05:15:38 10° NNW 05:20:49 87° WSW 05:25:58 10° SSE
ATLAS 5 CENTAUR R/B 4.2 05:19:41 10° SSE 05:23:16 24° ESE 05:27:03 10° ENE
Cosmos 2123 Rocket 4.5 05:22:59 10° SW 05:28:34 35° WNW 05:34:14 10° NNW
SL-8 R/B 4.2 05:24:45 10° SW 05:29:26 61° SE 05:34:09 10° ENE
Cosmos 1606 3.4 05:28:43 10° N 05:32:28 56° E 05:36:13 10° SSE
Cosmos 1725 Rocket 4.4 05:27:55 10° NNW 05:33:36 40° W 05:39:16 10° SSW
SL-16 R/B 2.9 05:29:35 10° WSW 05:34:33 31° WNW 05:39:34 10° N
Cosmos 1703 Rocket 3.7 05:30:16 10° N 05:34:39 75° E 05:38:58 10° SSE
Cosmos 1869 Rocket 3.7 05:32:21 10° S 05:36:40 78° E 05:41:04 10° N
Cosmos 1603 3.7 05:33:22 10° SSW 05:38:59 88° WNW 05:44:41 10° NNE
PAYLOAD A 4.1 05:33:57 10° N 05:39:06 62° WNW 05:44:23 10° SSW
Cosmos 1862 4.3 05:42:32 10° SSE 05:46:22 50° E 05:50:12 10° NNE
Cosmos 968 Rocket 4.0 05:41:32 10° N 05:46:47 63° ENE 05:51:58 10° SSE
Cosmos 1892 4.3 05:44:48 10° WSW 05:46:56 14° WNW 05:49:04 10° NW
ISS -2.5 05:47:30 14° W 05:49:32 25° SW 05:52:16 10° S
COSMO-SKYMED 1 3.1 05:46:20 10° SSW 05:50:20 37° W 05:54:22 10° NNW
COSMOS 2441 4.4 05:45:57 10° NNE 05:50:53 89° E 05:55:45 10° SSW
USA 229 DEB 3.9 05:46:24 10° NW 05:53:35 70° WSW 06:00:54 10° SSE
USA 229 3.9 05:46:30 10° NW 05:53:41 71° WSW 06:01:00 10° SSE
CZ-4 R/B 3.3 05:52:58 10° NNE 05:56:32 33° E 06:00:09 10° SSE
Cosmos 405 Rocket 3.3 05:53:15 10° N 05:56:55 59° E 06:00:36 10° SSE
MSX 3.8 05:51:43 10° N 05:57:30 77° WNW 06:03:14 10° SSW
CZ-2C R/B 2.6 05:52:55 10° N 05:58:00 57° WNW 06:02:58 10° SSW
DELTA 2 R/B (1) 3.8 05:56:49 10° WNW 06:02:22 62° N 06:07:53 10° E
SJ-12 4.0 06:01:10 10° N 06:05:14 57° WNW 06:09:14 10° SSW
Cosmos 2369 Rocket 3.2 06:01:15 10° N 06:06:38 47° ENE 06:12:00 10° SE
Cosmos 1900 4.5 06:02:34 10° SW 06:07:37 60° WNW 06:12:44 10° NNE
IRAS Rocket 4.3 06:04:04 10° NNE 06:09:34 89° ESE 06:15:03 10° SSW
